Location: Unspecified
(0.0000°N, 0.0000°E)
Time: 05:00:52
(UTC+00:00)

Vanguard 3 - Pass Details

Date: 20 April 2021
Orbit: 507 x 3262 km, 33.4° (Epoch: 17 May)

Event Time Altitude Azimuth Distance (km) Brightness Sun altitude
Rises 21:56:43 0° 244° (WSW) 6,436 12.0 -57.5°
Reaches altitude 10° 22:01:47 10° 248° (WSW) 5,015 11.4 -58.6°
Enters shadow 22:07:14 25° 258° (WSW) 3,445 10.4 -59.9°
